Location: Brachbach
(49.1847°N, 9.7240°E)
Time: 13:34:17
(UTC+00:00)

Nimbus 7 Rocket - Pass Details

Date: 12 August 2024
Orbit: 921 x 965 km, 99.4° (Epoch: 14 September)

Event Time Altitude Azimuth Distance (km) Brightness Sun altitude
Rises 02:09:47 0° 6° (N) 3,598 8.4 -16.5°
Reaches altitude 10° 02:12:58 10° 349° (N) 2,643 7.3 -16.1°
Maximum altitude 02:16:48 18° 308° (NW) 2,094 6.2 -15.7°
Enters shadow 02:20:24 11° 269° (W) 2,573 6.3 -15.3°
